sat.trackr.live / text

‹ back to catalog

QIANFAN-107

NORAD 66049 · 2025-233S

PAYLOAD ACTIVE UNKNOWN

§ Identity

Operator
Country
PRC
Launch date
2025-10-17
Launch site
TAISC
Launch vehicle
Mass (kg)
RCS (m²)

External: N2YO · Heavens-Above · Gunter

§ Orbital elements

Epoch: 2026-09-20T14:11:22.623648Z

Period
106.59 min
Inclination
89.0063°
Eccentricity
0.0001805
Mean motion
13.51029554 rev/d
Perigee alt
1,067.1 km
Apogee alt
1,069.8 km
Semi-major
7,446.6 km
B*
9.4402e-5
RAAN
33.5509°
Arg perigee
95.6249°
Mean anomaly
264.5108°
Rev number
4,607

§ Raw data

QIANFAN-1071 66049U 25233S   26263.59123407  .00000073  00000+0  94402-4 0  99922 66049  89.0063  33.5509 0001805  95.6249 264.5108 13.51029554 46075

JSON: /api/v1/satellites/66049 · /tle

For live sub-satellite position, see the globe view (requires WebGL).

§ Visibility from observer

Set your observer location to see the next 7 days of passes ≥ 10°. The values pass through the URL so the page stays shareable.

No JS? Fill the form by hand. The geolocation button needs JavaScript.